[[{"header":{"parameterUnit":"m.s-1","parameterCategory":1,"la1":30.2992,"la2":30.254,"lo1":-89.0895,"lo2":-89.0443,"dy":0.0025,"dx":0.0025,"nx":19,"ny":19,"refTime":"2026-04-17T03:00:00:Z","depth":0,"parameterNumber":2,"parameterNumberName":"U-component_of_WINDS"},"data":[0,0,0,2.6442,2.6443,2.6485,2.6485,2.6561,2.6562,0,0,0,0,0,0,0,0,0,0,0,2.6442,2.6443,2.6442,2.6443,2.6485,2.6485,2.6561,2.6562,0,0,0,0,0,0,0,0,0,0,0,2.6442,2.6443,2.6444,2.6443,2.6485,2.6485,2.656,2.6521,0,0,0,0,0,0,0,0,0,0,2.6476,2.649,2.6443,2.6444,2.6444,2.6485,2.6485,2.6519,2.6523,2.6551,0,2.6579,0,2.6571,2.6568,2.6568,0,0,0,2.6433,2.6486,2.6485,2.6444,2.6444,2.6485,2.6463,2.6521,2.6526,2.6557,2.658,2.6582,2.6573,2.6569,2.6569,2.6756,2.6758,0,0,2.6431,2.6457,2.6482,2.6489,2.6484,2.6462,2.6465,2.6524,2.655,2.658,2.6583,2.6574,2.6569,2.657,2.6755,2.6757,0,0,0,2.6431,2.6456,2.6453,2.6487,2.6493,2.6463,2.6467,2.6547,2.6544,2.6584,2.6575,2.657,2.6571,2.6754,2.6756,2.6844,0,0,0,2.6429,2.6456,2.6453,2.6469,2.6492,2.6521,2.6489,2.654,2.6546,2.6574,2.657,2.6572,2.6752,2.6755,2.6838,2.688,0,0,0,2.6435,2.6456,2.6467,2.6471,2.6489,2.6519,2.6519,2.6541,2.6541,2.6568,2.6572,2.6751,2.6754,2.6833,2.6872,2.6935,0,0,0,2.645,2.6547,2.6469,2.6574,2.6489,2.6574,2.6518,2.658,2.6614,2.657,2.6752,2.6756,2.6831,2.6867,2.6929,2.699,2.7018,0,0,2.6587,2.6565,2.6624,2.6555,2.666,2.6565,2.6682,2.669,2.667,2.6729,2.6733,2.684,2.6872,2.6933,2.7173,2.7195,0,0,0,2.6676,2.6719,2.6741,2.6774,2.6781,2.679,2.6777,2.6779,2.6827,2.6706,2.688,2.6898,2.6933,2.6961,2.698,2.7007,2.677,2.677,2.677,2.6908,2.6875,2.697,2.6942,2.6975,2.6958,2.6981,2.6981,2.6941,2.6983,2.6999,2.7148,2.7181,2.7196,2.7224,2.7031,2.7031,2.7032,2.7032,2.7103,2.7157,2.7099,2.717,2.7134,2.7194,2.7183,2.7151,2.7201,2.7134,2.7163,2.709,2.7221,2.7245,2.7038,2.7037,2.7036,2.7036,2.7035,2.7248,2.7268,2.7269,2.731,2.7346,2.7315,2.7364,2.7332,2.7302,2.7331,2.7342,2.7341,2.7332,2.7339,2.734,2.734,2.7341,2.7341,2.7341,2.7397,2.7395,2.744,2.7454,2.7469,2.7485,2.7469,2.7483,2.749,2.7462,2.7462,2.7415,2.7242,2.7196,2.7349,2.7348,2.7347,2.7346,2.7345,2.7603,2.755,2.762,2.7635,2.7647,2.7683,2.7641,2.7672,2.7679,2.7704,2.7652,2.7529,2.7504,2.7489,2.7451,2.766,2.766,2.766,2.766,2.7723,2.7707,2.7768,2.7794,2.7815,2.7783,2.7861,2.785,2.783,2.7832,2.7797,2.7746,2.7732,2.7715,2.7694,2.7658,2.7915,2.7916,2.7916,2.7845,2.7829,2.7902,2.788,2.7887,2.7893,2.7965,2.7996,2.7963,2.7925,2.7832,2.7821,2.7737,2.7712,2.767,2.764,2.7573,0,0]},{"header":{"parameterUnit":"m.s-1","parameterCategory":1,"la1":30.2992,"la2":30.254,"lo1":-89.0895,"lo2":-89.0443,"dy":0.0025,"dx":0.0025,"nx":19,"ny":19,"refTime":"2026-04-17T03:00:00:Z","depth":0,"parameterNumber":3,"parameterNumberName":"V-component_of_WINDS"},"data":[0,0,0,2.1763,2.1767,2.1933,2.1933,2.2137,2.2139,0,0,0,0,0,0,0,0,0,0,0,2.1709,2.171,2.1763,2.1767,2.1933,2.1933,2.2137,2.2139,0,0,0,0,0,0,0,0,0,0,0,2.1708,2.171,2.1711,2.1768,2.1932,2.1933,2.2137,2.2015,0,0,0,0,0,0,0,0,0,0,2.1855,2.1799,2.1709,2.1711,2.1769,2.1932,2.1934,2.2009,2.2022,2.2059,0,2.2089,0,2.2117,2.2152,2.2153,0,0,0,2.1771,2.1788,2.1837,2.1711,2.177,2.1932,2.1859,2.2016,2.2031,2.2076,2.2092,2.21,2.212,2.2153,2.2154,2.2347,2.2347,0,0,2.1762,2.1736,2.1827,2.1847,2.182,2.1854,2.1864,2.2026,2.2041,2.2093,2.2105,2.2124,2.2155,2.2156,2.2346,2.2347,0,0,0,2.1733,2.1729,2.1775,2.1838,2.1869,2.1858,2.1871,2.2034,2.2051,2.2107,2.2126,2.2156,2.2158,2.2345,2.2346,2.2353,0,0,0,2.1728,2.1712,2.1771,2.1756,2.1865,2.1953,2.1875,2.204,2.2059,2.2125,2.2156,2.216,2.2345,2.2346,2.2352,2.2361,0,0,0,2.17,2.1709,2.1731,2.1755,2.1825,2.1951,2.1978,2.2045,2.2071,2.2153,2.2161,2.2344,2.2346,2.235,2.2359,2.2403,0,0,0,2.1663,2.1736,2.1731,2.1821,2.1823,2.1954,2.1977,2.2077,2.2148,2.2157,2.2345,2.2346,2.235,2.2357,2.2401,2.2434,2.2446,0,0,2.1741,2.1745,2.18,2.18,2.1925,2.1931,2.2058,2.215,2.2182,2.229,2.2295,2.2352,2.2359,2.2402,2.2523,2.2531,0,0,0,2.1816,2.1855,2.1894,2.196,2.203,2.2091,2.2166,2.2199,2.2292,2.2232,2.2382,2.2386,2.2413,2.243,2.2438,2.2462,2.2353,2.2353,2.2353,2.1889,2.1925,2.2018,2.2074,2.2138,2.2213,2.2269,2.2327,2.2347,2.2381,2.2413,2.2481,2.25,2.2506,2.2531,2.2435,2.2435,2.2435,2.2435,2.2006,2.2066,2.2089,2.2187,2.2225,2.2309,2.2384,2.2395,2.2478,2.2461,2.2486,2.2463,2.2515,2.2539,2.2436,2.2436,2.2436,2.2435,2.2435,2.2056,2.2092,2.213,2.2228,2.23,2.2356,2.2433,2.2467,2.2498,2.2524,2.256,2.256,2.2563,2.2539,2.2539,2.2539,2.2539,2.254,2.254,2.2093,2.2137,2.2198,2.2278,2.2324,2.2389,2.2464,2.2511,2.2571,2.2589,2.2589,2.2604,2.2514,2.2489,2.2544,2.2543,2.2542,2.2542,2.2542,2.2196,2.2178,2.2272,2.2318,2.2414,2.2482,2.2523,2.2615,2.2658,2.2695,2.2706,2.2633,2.264,2.2634,2.2614,2.2698,2.2698,2.2698,2.2698,2.2238,2.2245,2.2347,2.2418,2.2492,2.2538,2.2643,2.2702,2.2761,2.279,2.2783,2.276,2.2753,2.2764,2.2755,2.2737,2.285,2.285,2.285,2.2303,2.2318,2.2401,2.2456,2.2534,2.2599,2.2699,2.278,2.2843,2.2857,2.2813,2.2807,2.277,2.2756,2.2768,2.2754,2.2721,0,0]}]]